| time (UTC) | temp F | wind direction | speed MPH | gust MPH | rain 1hr in | rain 24hr in | rain mn in | humidity % | barometer mb |
| 20260506131518 | 40 | 70 | 1.0 | 2.0 | 0.00 | 0.00 | 0.00 | 51 | 1018.8 |
| 20260506130019 | 38 | 155 | 1.0 | 6.0 | 0.00 | 0.00 | 0.00 | 56 | 1018.9 |
| 20260506123012 | 35 | 227 | 1.0 | 3.0 | 0.00 | 0.00 | 0.00 | 64 | 1018.8 |
| 20260506121510 | 36 | 234 | 3.0 | 6.0 | 0.00 | 0.00 | 0.00 | 62 | 1018.7 |
| 20260506120026 | 35 | 111 | 4.0 | 5.0 | 0.00 | 0.00 | 0.00 | 63 | 1018.5 |
| 20260506114534 | 37 | 223 | 2.0 | 7.0 | 0.00 | 0.00 | 0.00 | 62 | 1018.6 |
| 20260506113024 | 37 | 108 | 7.0 | 10.0 | 0.00 | 0.00 | 0.00 | 56 | 1018.6 |
| 20260506111522 | 38 | 140 | 3.0 | 7.0 | 0.00 | 0.00 | 0.00 | 59 | 1018.7 |
| 20260506110022 | 38 | 144 | 6.0 | 10.0 | 0.00 | 0.00 | 0.00 | 58 | 1018.6 |
| 20260506104518 | 39 | 124 | 8.0 | 12.0 | 0.00 | 0.00 | 0.00 | 58 | 1018.6 |
| 20260506103018 | 38 | 160 | 4.0 | 11.0 | 0.00 | 0.00 | 0.00 | 59 | 1018.6 |
| 20260506101526 | 39 | 158 | 4.0 | 11.0 | 0.00 | 0.00 | 0.00 | 58 | 1018.6 |
| 20260506100026 | 38 | 129 | 8.0 | 11.0 | 0.00 | 0.00 | 0.00 | 60 | 1018.7 |
| 20260506094526 | 38 | 117 | 6.0 | 11.0 | 0.00 | 0.00 | 0.00 | 60 | 1018.8 |
| 20260506093024 | 38 | 126 | 5.0 | 10.0 | 0.00 | 0.00 | 0.00 | 61 | 1018.9 |
| 20260506091522 | 38 | 136 | 8.0 | 11.0 | 0.00 | 0.00 | 0.00 | 61 | 1019.1 |
| 20260506084519 | 39 | 234 | 0.0 | 12.0 | 0.00 | 0.00 | 0.00 | 58 | 1019.1 |
| 20260506083027 | 39 | 126 | 6.0 | 11.0 | 0.00 | 0.00 | 0.00 | 59 | 1019.1 |
| 20260506081524 | 38 | 122 | 8.0 | 10.0 | 0.00 | 0.00 | 0.00 | 62 | 1019.1 |
| 20260506073025 | 42 | 162 | 2.0 | 7.0 | 0.00 | 0.00 | 0.00 | 54 | 1019.3 |
| 20260506071524 | 43 | 148 | 1.0 | 4.0 | 0.00 | 0.00 | 0.00 | 53 | 1019.2 |
| 20260506061528 | 44 | 120 | 1.0 | 2.0 | 0.00 | 0.00 | 0.00 | 50 | 1018.9 |
| 20260506044504 | 45 | 115 | 2.0 | 6.0 | 0.00 | 0.00 | 0.00 | 53 | 1018.4 |
| 20260506043025 | 46 | 47 | 4.0 | 7.0 | 0.00 | 0.00 | 0.00 | 51 | 1018.2 |
| 20260506041519 | 47 | 54 | 4.0 | 8.0 | 0.00 | 0.00 | 0.00 | 50 | 1017.9 |
| 20260506040016 | 48 | 325 | 5.0 | 10.0 | 0.00 | 0.00 | 0.00 | 46 | 1017.7 |
| 20260506034528 | 49 | 305 | 4.0 | 8.0 | 0.00 | 0.00 | 0.00 | 45 | 1017.5 |
| 20260506033012 | 49 | 320 | 4.0 | 8.0 | 0.00 | 0.00 | 0.00 | 43 | 1017.3 |
| 20260506031517 | 50 | 292 | 1.0 | 4.0 | 0.00 | 0.00 | 0.00 | 40 | 1017.2 |
| 20260506030019 | 51 | 340 | 2.0 | 7.0 | 0.00 | 0.00 | 0.00 | 38 | 1016.9 |
| 20260506024515 | 51 | 20 | 4.0 | 11.0 | 0.00 | 0.00 | 0.00 | 38 | 1016.6 |
| 20260506023023 | 53 | 352 | 10.0 | 14.0 | 0.00 | 0.00 | 0.00 | 34 | 1016.2 |
| 20260506021521 | 54 | 20 | 8.0 | 17.0 | 0.00 | 0.00 | 0.00 | 35 | 1015.9 |
| 20260506020020 | 54 | 22 | 15.0 | 20.0 | 0.00 | 0.00 | 0.00 | 32 | 1015.7 |
| 20260506014516 | 55 | 28 | 14.0 | 21.0 | 0.00 | 0.00 | 0.00 | 33 | 1015.4 |
| 20260506013011 | 55 | 360 | 13.0 | 22.0 | 0.00 | 0.00 | 0.00 | 31 | 1015.2 |
| 20260506011517 | 56 | 346 | 18.0 | 28.0 | 0.00 | 0.00 | 0.00 | 27 | 1015.1 |
| 20260506010008 | 56 | 27 | 17.0 | 25.0 | 0.00 | 0.00 | 0.00 | 29 | 1014.9 |
| 20260506004542 | 57 | 360 | 17.0 | 24.0 | 0.00 | 0.00 | 0.00 | 29 | 1014.6 |
| 20260506003032 | 57 | 338 | 17.0 | 26.0 | 0.00 | 0.00 | 0.00 | 29 | 1014.5 |
| 20260506001528 | 57 | 5 | 19.0 | 25.0 | 0.00 | 0.00 | 0.00 | 29 | 1014.5 |
| 20260506000024 | 58 | 9 | 13.0 | 23.0 | 0.00 | 0.00 | 0.00 | 33 | 1014.5 |
| 20260505234522 | 59 | 19 | 14.0 | 22.0 | 0.00 | 0.00 | 0.00 | 32 | 1014.5 |
| 20260505231522 | 59 | 24 | 13.0 | 21.0 | 0.00 | 0.00 | 0.00 | 33 | 1014.5 |
| 20260505230013 | 59 | 5 | 12.0 | 20.0 | 0.00 | 0.00 | 0.00 | 34 | 1014.5 |
| 20260505224532 | 59 | 19 | 11.0 | 19.0 | 0.00 | 0.00 | 0.00 | 32 | 1014.5 |
| 20260505223024 | 59 | 40 | 13.0 | 20.0 | 0.00 | 0.00 | 0.00 | 32 | 1014.5 |
| 20260505221526 | 59 | 5 | 12.0 | 18.0 | 0.00 | 0.00 | 0.00 | 31 | 1014.7 |
| 20260505214522 | 59 | 13 | 10.0 | 18.0 | 0.00 | 0.00 | 0.00 | 32 | 1014.7 |
| 20260505213022 | 59 | 360 | 6.0 | 18.0 | 0.00 | 0.00 | 0.00 | 30 | 1014.8 |
| 20260505211522 | 59 | 28 | 9.0 | 15.0 | 0.00 | 0.00 | 0.00 | 32 | 1014.8 |
| 20260505210018 | 58 | 10 | 7.0 | 13.0 | 0.00 | 0.00 | 0.00 | 33 | 1014.9 |
| 20260505204515 | 58 | 17 | 9.0 | 19.0 | 0.00 | 0.00 | 0.00 | 30 | 1014.8 |
| 20260505203024 | 59 | 360 | 9.0 | 15.0 | 0.00 | 0.00 | 0.00 | 32 | 1014.9 |
| 20260505201532 | 58 | 15 | 7.0 | 14.0 | 0.00 | 0.00 | 0.00 | 30 | 1015.1 |
| 20260505200008 | 58 | 17 | 5.0 | 16.0 | 0.00 | 0.00 | 0.00 | 31 | 1015.1 |
| 20260505194504 | 58 | 55 | 6.0 | 12.0 | 0.00 | 0.00 | 0.00 | 31 | 1015.1 |
| 20260505193023 | 57 | 20 | 5.0 | 11.0 | 0.00 | 0.00 | 0.00 | 31 | 1015.3 |
| 20260505191526 | 57 | 360 | 7.0 | 11.0 | 0.00 | 0.00 | 0.00 | 31 | 1015.4 |
| 20260505190034 | 56 | 352 | 7.0 | 13.0 | 0.00 | 0.00 | 0.00 | 36 | 1015.6 |
| 20260505184526 | 56 | 24 | 3.0 | 12.0 | 0.00 | 0.00 | 0.00 | 35 | 1015.8 |
| 20260505183020 | 55 | 37 | 8.0 | 15.0 | 0.00 | 0.00 | 0.00 | 40 | 1016.0 |
| 20260505181516 | 54 | 61 | 6.0 | 12.0 | 0.00 | 0.00 | 0.00 | 45 | 1016.0 |
| 20260505180009 | 53 | 59 | 3.0 | 11.0 | 0.00 | 0.00 | 0.00 | 42 | 1016.3 |
| 20260505174510 | 53 | 19 | 5.0 | 13.0 | 0.00 | 0.00 | 0.00 | 44 | 1016.3 |
| 20260505173026 | 52 | 19 | 4.0 | 8.0 | 0.00 | 0.00 | 0.00 | 48 | 1016.4 |
| 20260505171525 | 51 | 345 | 5.0 | 8.0 | 0.00 | 0.00 | 0.00 | 50 | 1016.5 |
| 20260505170024 | 50 | 41 | 3.0 | 11.0 | 0.00 | 0.00 | 0.00 | 51 | 1016.6 |
| 20260505164523 | 50 | 5 | 3.0 | 9.0 | 0.00 | 0.00 | 0.00 | 52 | 1016.6 |
| 20260505163016 | 49 | 352 | 5.0 | 9.0 | 0.00 | 0.00 | 0.00 | 54 | 1016.7 |
| 20260505161518 | 48 | 352 | 4.0 | 8.0 | 0.00 | 0.00 | 0.00 | 54 | 1016.7 |
| 20260505153034 | 47 | 302 | 3.0 | 7.0 | 0.00 | 0.00 | 0.00 | 53 | 1016.6 |
| 20260505151528 | 47 | 17 | 3.0 | 4.0 | 0.00 | 0.00 | 0.00 | 52 | 1016.6 |